Find Starlink 11554

NORAD ID: 62833 Int'l Des: 2025-019 Owner: SPXS Country: US Constellation: starlink operational
LEOCIRCULAR

当前视图

正在加载3D地球...

About Starlink 11554

Starlink 11554 (NORAD 62833) is a starlink constellation satellite (v2 mini d2c) launched Jan 27, 2025 by SPXS of US. It operates in LEO, CIRCULAR orbit with a mass of 960.00 kg.

关于 Starlink 11554

正在加载描述...

即将过境

Passes for default location (London). Set your location on the main map for personalized predictions.

高度历史

Loading altitude history...

两行轨道根数

1 62833U 25019E 26171.35313926 .00214791 00000-0 16322-2 0 9998
2 62833 43.0015 47.4646 0000986 324.1394 35.9407 15.70873952 80022
Epoch: Jun 20, 2026 • Age: 45 hours

当前状态

高度 357.4 km
速度 7.70 km/s
星下点 42.25°N, 153.11°E
发射日期 Jan 27, 2025
运行时间 1.3 years
类型 internet

技术详情

分类 Payload
质量 960.00 kg
干质量 910.00 kg
总质量 960.00 kg
长度 0.30 m
直径 4.10 m
跨度 29.00 m
形状 Box + pan
制造商 SPXS
平台类型 Starlink V2MD
阶段状态 In Orbit
所有者/国家 SPXS/US

Most Searched